Weather Roundup
Issued by NWS Corpus Christi, TX

Home | Current Version | Previous Version | Text Only | Print | Product List | Glossary On
Versions: 1 2 3 4 5 6 7 8 9 10 11 12 13 14 15 16 17 18 19 20 21 22 23 24 25 26 27 28 29 30 31 32 33 34 35 36 37 38 39 40 41 42 43 44 45 46 47 48 49 50
000
ASUS44 KCRP 241110
HRRCRP

SOUTH TEXAS REGIONAL WEATHER ROUNDUP
NATIONAL WEATHER SERVICE CORPUS CHRISTI TX
600 AM CDT THU JUL 24 2014


TXZ229>244-241200-
...CORPUS CHRISTI AREA OBSERVATIONS...

CITY           SKY/WX    TMP DP  RH WIND       PRES   REMARKS
CORPUS CHRISTI MOCLDY    77  74  90 S6        29.96F
NAS CORPUS CHR MOCLDY    80  76  87 SW8       29.96F
ROCKPORT       PTCLDY    80  77  90 CALM      29.96S
KINGSVILLE NAS PTCLDY    75  75 100 S7        29.97S
ALICE          PTCLDY    76  74  93 S13       29.97S
FALFURRIAS     PTCLDY    62  62 100 SE3       29.97S
$$

...VICTORIA AREA OBSERVATIONS...

CITY           SKY/WX    TMP DP  RH WIND       PRES   REMARKS
VICTORIA       PTCLDY    79  76  90 CALM      29.98S
BEEVILLE       FAIR      77  77 100 CALM      29.99R FOG
PLEASANTON     CLEAR     75  70  86 CALM      29.99S
SAN ANTONIO    MOCLDY    80  70  71 CALM      30.02R
$$

...LAREDO AREA OBSERVATIONS...

CITY           SKY/WX    TMP DP  RH WIND       PRES   REMARKS
LAREDO         PTCLDY    81  71  71 E6        30.01R
COTULLA        PTCLDY    77  70  79 SE3       29.98F
DEL RIO        CLEAR     82  67  60 E8        30.00R
MCALLEN        CLEAR     78  76  93 SE3       29.97S
HEBBRONVILLE   MOCLDY    76  71  84 CALM      30.00F
$$

...OTHER TEXAS OBSERVATIONS...

CITY           SKY/WX    TMP DP  RH WIND       PRES   REMARKS
BROWNSVILLE    CLEAR     77  75  93 SE5       29.97S
HOUSTON        MOCLDY    74  72  93 CALM      29.98S
COL. STATION   CLOUDY    76  69  79 CALM      30.01R
AUSTIN         LGT RAIN  76  72  87 CALM      30.00R
WACO           MOCLDY    75  67  76 E7        30.05R
FORT WORTH     MOCLDY    75  68  78 SE3       30.05R
WICHITA FALLS  CLEAR     75  71  87 CALM      30.03S
LUBBOCK        PTCLDY    70  61  73 SW3       30.17S
EL PASO        CLEAR     74  52  46 CALM      30.16S
$$

...MARINE OBSERVATIONS...

STATION/POSITION TIME  SKY/WX   TEMP    WIND        PRES    VSBY  WAVE   SWELL
                                AIR SEA DIR/SP/G                  HT/PER HT/PER
                 (UTC)          (F)     (DEG/KT/KT) (MB)    (MI)  (FT/S) (FT/S)
PORT ARANSAS     1000            82 86  180/ 11/ 11 1014.9F
BUOY 90 E PORT A 1100            83 83  210/ 12/ 14 1014.8R         1/ 5
BUOY 45 SE BAFFI 1100            82 82  230/  8/ 10 1014.7F         2/ 5   2/ 5
BUOY 200 E PT IS 1000            83 85  200/  6/  8 1015.0R         1/ 5   2/ 5
BUOY 15 E GALVES NOT AVBL
$$



USA.gov is the U.S. government's official web portal to all federal, state and local government web resources and services.